GEFSMA_con_cape1000_276.txt.gz
Probability
65 58 65 65 58 61 65 61 52 52 55 45 48 32 32 29 23 26 19 39 35 39 35 32 35 39 35 39 39 42 39 32 42 42 39 35 32 39 26 23 26 26 23
68 65 65 65 68 68 71 68 61 68 61 61 52 52 45 35 29 23 19 29 35 39 35 32 39 42 39 35 39 42 42 35 48 35 35 32 35 32 29 26 16 13 26
77 74 77 71 74 71 74 74 71 68 68 58 58 61 55 55 45 26 26 19 23 26 32 32 39 42 32 35 35 42 45 39 35 29 19 23 32 29 23 26 19 16 23
71 74 77 77 81 81 74 77 65 77 71 61 58 55 58 55 45 39 32 26 19 16 29 29 35 32 29 26 29 39 35 26 23 23 19 19 16 19 16 10 23 23 19
68 68 81 81 81 74 81 48 68 71 71 61 48 52 52 48 45 35 29 23 26 23 10 19 26 29 29 23 23 19 26 26 23 13 13 13 10 19 23 13 16 13 13
71 77 74 77 71 74 84 87 77 74 65 65 32 32 45 48 52 39 32 29 26 19 19 10 19 16 19 23 23 19 23 26 23 16 16 13 13 16 13 13 13 10 13
68 77 77 77 81 77 77 71 71 65 58 58 52 39 52 48 48 48 45 35 35 32 23 29 26 19 13 13 19 23 23 23 16 13 13 19 13 13 13 13 13 10 13
71 68 77 77 77 84 77 77 71 68 61 48 45 48 39 32 32 19 42 35 35 32 26 19 26 23 16 16 10 16 26 29 26 19 19 19 19 10 16 16 10 10 10
61 65 65 77 81 77 77 74 71 61 55 48 55 52 42 26 29 32 29 35 32 32 29 23 26 35 26 23 16 16 19 23 26 26 29 23 23 10 13 13 13 16 16
61 61 61 61 74 77 77 77 71 68 58 55 52 52 48 48 32 32 45 42 32 29 29 26 32 35 32 29 23 19 19 16 19 26 26 29 23 19 19 13 13 13 10
74 65 65 65 74 77 77 77 71 68 74 65 58 52 52 52 39 32 26 29 35 35 39 32 35 35 29 29 32 16 13 16 13 13 19 19 23 26 23 16 16 19 23
77 71 68 74 74 74 77 77 77 68 65 68 61 55 55 45 42 45 45 35 32 26 32 29 26 29 29 23 13 10 13 10 6 6 6 13 19 19 23 23 16 19 23
74 74 68 71 74 74 74 81 74 68 65 65 61 61 61 52 48 42 48 48 32 29 32 32 32 26 19 29 19 6 13 6 3 3 3 6 6 10 13 13 16 13 16
71 71 74 71 74 74 68 74 71 71 68 61 61 61 58 48 52 42 42 42 39 32 29 29 26 29 32 26 16 3 10 6 6 3 3 3 3 3 3 3 3 3 3
61 68 71 71 74 68 68 65 65 65 65 58 58 55 58 52 45 42 39 42 32 23 19 26 26 26 26 26 6 10 23 6 6 3 3 0 0 0 0 3 3 3 3
71 68 68 71 68 61 61 61 65 61 61 65 61 58 61 55 48 45 45 45 42 35 35 32 29 29 26 16 3 19 16 10 3 3 0 0 0 0 0 0 0 0 3
71 68 65 68 65 61 68 65 58 55 55 58 52 48 52 52 48 42 39 35 39 42 39 29 29 29 26 23 16 26 23 23 10 3 0 0 0 0 0 0 0 0 0
71 65 65 61 58 65 61 58 58 61 55 52 48 48 45 45 45 48 52 35 39 39 39 26 23 19 16 19 23 23 19 16 16 3 3 0 0 0 0 0 0 0 0
71 68 71 58 52 48 45 52 48 52 55 48 52 48 45 48 48 45 45 35 32 26 29 23 26 23 19 19 19 16 16 19 10 10 3 3 0 0 0 0 0 0 0
65 65 61 61 52 52 48 48 48 45 45 48 48 45 48 42 39 42 42 39 39 29 26 19 23 23 16 13 13 13 13 16 13 10 10 3 3 0 0 0 0 0 0
61 61 65 61 58 55 48 48 55 45 58 48 42 42 35 32 29 29 29 29 26 32 26 26 23 23 13 16 13 13 16 13 13 10 10 10 3 3 3 0 0 0 0
65 68 61 58 55 35 26 26 39 52 55 55 48 45 39 29 23 16 13 13 16 16 26 26 23 19 23 16 19 16 16 13 10 16 13 10 10 10 6 0 0 0 0
61 65 58 58 52 29 19 6 16 35 42 45 48 42 32 19 26 29 16 3 3 0 0 16 16 23 29 26 23 19 19 16 13 13 10 6 10 16 10 6 0 0 0
61 55 58 55 55 29 19 6 6 26 35 35 39 39 39 35 29 32 29 19 23 16 6 3 13 19 19 13 19 19 19 16 19 16 13 10 10 10 10 10 3 0 0
58 58 55 58 52 35 16 6 0 19 29 32 35 35 35 39 26 16 26 29 26 19 6 6 3 0 3 0 3 6 13 13 10 13 13 13 13 13 10 10 6 0 0
65 61 58 52 48 35 19 6 0 23 26 32 35 29 23 26 16 10 23 26 26 23 23 13 6 3 0 0 0 3 6 13 10 10 16 16 10 16 10 13 6 3 0

GEFSMA_con_cape1000_282.txt.gz
Probability
3 3 3 3 3 3 3 0 0 0 0 0 0 0 0 0 3 3 6 39 52 55 45 45 45 48 52 48 42 48 48 35 39 42 42 42 26 39 29 29 29 32 42
6 6 3 3 3 3 0 0 0 0 0 0 0 3 3 3 0 3 6 19 42 52 45 42 45 45 39 42 42 42 42 42 42 48 42 45 39 42 35 29 32 32 32
3 3 6 3 3 6 3 0 0 0 0 0 0 6 3 3 3 6 6 10 16 29 42 35 39 35 35 35 39 32 35 45 42 42 42 39 42 39 35 32 26 26 26
13 6 3 3 6 0 3 3 0 0 0 0 3 3 3 3 6 6 6 6 3 10 16 29 39 45 42 42 32 35 35 35 29 19 23 32 39 26 19 23 19 19 19
13 10 10 3 6 3 3 3 0 0 0 3 3 3 3 0 6 6 3 3 3 3 3 10 32 42 35 35 39 39 39 19 23 19 19 19 16 19 16 19 19 16 16
19 10 10 10 6 6 3 0 3 0 0 3 3 3 3 0 0 3 0 3 3 3 3 3 6 13 32 35 32 29 23 19 23 19 16 13 13 26 16 13 13 13 13
19 6 13 10 6 3 3 3 3 0 3 3 3 3 0 0 0 0 0 0 3 6 6 0 3 6 10 19 26 26 19 26 19 19 16 13 13 19 16 13 13 13 13
16 23 10 10 3 3 0 0 3 0 3 3 3 0 0 0 0 0 0 0 0 6 6 6 3 0 0 3 3 16 23 23 23 19 16 16 19 16 16 13 16 16 13
13 10 10 6 6 3 3 0 0 3 3 3 3 0 0 0 0 0 0 0 0 3 6 6 3 3 0 0 3 6 26 29 26 26 19 26 29 23 16 16 16 19 16
19 13 13 10 16 6 0 0 6 3 3 3 0 3 0 0 0 0 0 0 0 0 3 6 6 3 3 3 3 3 6 10 13 23 26 26 26 23 23 23 19 19 23
19 19 16 13 13 3 3 3 3 3 3 3 6 6 6 3 0 3 0 0 3 3 0 3 3 3 3 3 3 6 6 6 6 16 26 29 26 23 23 23 23 19 16
10 16 16 13 10 10 10 6 3 6 10 10 10 6 6 6 3 3 3 3 3 3 3 0 0 3 3 3 3 3 3 3 3 3 3 6 16 16 19 19 19 19 19
16 16 19 16 3 10 13 13 13 10 10 13 13 10 6 6 6 3 3 3 3 3 3 3 0 0 6 3 3 3 3 3 3 3 3 3 3 3 6 6 13 13 13
23 19 23 19 13 19 23 19 16 23 23 19 19 13 13 16 10 6 3 3 3 3 3 3 3 3 0 3 3 3 3 3 3 3 3 3 3 3 3 3 3 6 6
23 19 19 23 16 16 16 23 19 16 23 23 19 19 13 13 13 10 6 6 6 3 3 3 3 3 3 0 0 3 3 3 3 3 3 3 0 0 0 0 3 3 3
26 23 19 16 13 10 13 16 19 19 19 19 19 16 16 13 13 10 10 6 6 6 6 3 6 3 6 10 0 3 3 3 3 3 3 0 0 0 0 0 0 0 0
16 16 13 10 10 13 13 16 19 19 19 19 19 16 16 16 10 10 10 6 10 6 6 6 6 6 3 3 3 3 0 3 3 3 0 0 0 0 0 0 0 0 0
23 23 19 16 19 26 19 19 23 23 16 16 16 16 16 16 10 10 10 10 10 10 10 6 6 6 6 3 3 3 3 3 3 3 3 3 0 0 0 0 0 0 0
26 23 16 23 23 23 26 19 23 19 19 16 16 16 19 16 13 10 10 10 13 13 13 13 6 6 6 3 3 3 3 3 3 3 3 3 3 3 0 0 0 0 0
29 23 23 26 26 26 26 26 19 19 19 19 16 16 16 16 16 16 13 13 13 13 10 10 10 10 6 3 3 3 3 3 3 3 6 6 0 0 0 0 0 0 0
23 29 26 23 29 29 26 16 19 16 13 16 16 13 13 16 19 19 16 16 13 13 10 10 10 6 3 3 6 3 6 3 3 3 3 0 0 0 0 0 0 0 0
26 26 26 26 26 26 23 13 19 23 19 10 13 16 16 16 16 13 13 10 10 10 13 13 3 3 3 3 3 3 3 3 3 3 0 0 0 0 0 0 0 0 0
26 26 23 23 23 23 13 6 6 16 16 16 13 13 13 13 13 13 10 6 6 6 3 3 3 3 3 3 3 3 3 3 3 0 0 0 0 0 0 0 0 0 0
29 23 23 23 19 23 10 6 3 6 16 16 16 13 13 13 13 13 13 10 6 6 3 0 3 3 3 3 3 0 0 0 0 0 0 0 0 3 3 0 0 0 0
32 29 23 19 23 19 13 3 3 6 13 10 13 13 13 10 10 10 10 10 10 6 6 0 0 0 0 0 0 0 0 0 0 0 0 0 0 0 0 0 0 0 0
26 26 23 23 23 23 13 6 3 10 10 13 10 13 10 6 10 6 6 10 10 10 6 3 3 0 0 0 0 0 0 0 0 0 0 0 0 0 0 0 0 0 0

GEFSMA_con_cape1000_288.txt.gz
Probability
3 6 3 0 0 0 0 0 0 0 0 3 0 0 3 3 3 3 6 23 42 52 55 55 58 48 48 45 39 45 48 39 35 48 39 32 32 39 35 26 29 35 35
6 3 0 0 0 0 0 0 0 0 0 0 0 6 3 3 3 6 6 13 29 45 48 48 45 45 45 55 45 39 42 39 35 39 26 29 23 35 29 35 42 39 32
6 3 0 0 0 0 0 0 0 0 0 0 0 6 3 3 6 6 6 6 6 23 39 45 42 35 39 32 35 35 39 39 39 39 32 32 26 29 26 29 32 29 29
6 0 0 0 0 0 0 0 0 0 0 0 3 3 3 3 3 6 3 3 6 6 16 32 35 39 29 29 32 35 35 29 26 23 26 29 26 16 23 26 29 23 19
10 0 0 0 0 0 0 3 0 0 0 0 3 3 3 3 3 0 0 0 3 6 10 13 29 35 23 29 32 32 29 26 29 23 23 19 23 19 23 26 23 16 16
10 6 0 0 0 0 0 0 3 0 0 3 3 0 0 3 0 0 3 0 0 0 3 6 10 16 23 32 35 32 29 19 23 26 19 16 16 19 13 13 16 16 13
16 10 6 3 0 0 0 0 3 0 0 3 3 0 0 0 0 0 0 3 3 6 3 3 3 10 13 13 26 32 29 23 26 23 29 29 23 16 19 16 16 13 13
10 10 6 6 3 0 0 0 0 0 0 3 3 0 0 0 0 0 0 0 3 3 6 6 0 0 3 10 6 13 29 23 19 23 23 23 23 16 19 19 16 16 19
6 3 3 6 6 6 0 0 0 0 0 3 3 0 0 0 0 0 0 0 3 3 6 6 3 3 3 3 3 6 13 19 29 29 29 29 29 26 23 23 26 23 23
6 6 10 6 6 6 3 0 0 0 0 0 3 0 0 0 0 3 3 3 3 3 3 3 3 3 3 3 3 6 3 10 13 23 23 23 26 26 26 29 26 32 23
3 10 10 10 6 3 3 3 6 0 0 3 6 6 6 3 3 3 3 3 3 3 3 3 3 3 3 3 3 3 3 3 3 6 19 23 26 26 23 26 29 26 23
3 6 13 6 6 6 3 3 3 3 6 6 10 6 6 6 6 3 3 3 3 3 3 3 3 3 3 3 3 3 3 3 3 3 6 6 10 19 23 23 26 19 16
13 6 13 10 6 6 6 6 3 6 3 10 13 10 10 10 10 3 3 3 3 3 3 3 3 3 3 3 3 3 3 3 3 3 3 3 6 6 10 10 13 13 10
13 10 6 6 3 10 10 10 10 6 6 6 13 13 10 10 10 3 6 6 6 3 3 3 6 3 3 3 3 0 3 3 3 3 3 3 3 3 3 3 6 6 6
13 10 10 10 10 10 13 10 10 10 10 10 10 10 13 13 13 6 6 6 6 10 10 6 6 6 6 3 3 3 3 3 3 3 0 0 0 0 0 3 3 3 3
13 10 10 10 10 10 10 13 13 16 10 13 13 13 13 16 19 16 13 6 6 6 10 6 6 6 6 3 3 3 3 3 3 3 0 0 0 0 0 0 0 0 0
13 13 13 10 10 6 10 13 13 16 13 13 13 16 16 16 16 13 13 6 6 6 6 6 6 6 10 10 6 10 6 6 6 3 0 0 0 0 0 0 0 0 0
13 13 16 10 3 6 10 10 10 13 13 10 10 13 13 13 13 10 13 13 13 6 10 10 10 10 13 10 10 10 3 3 6 3 3 0 0 0 0 0 0 0 0
13 10 13 10 10 10 6 6 10 13 10 10 13 13 13 13 13 13 6 6 6 10 10 13 13 13 13 10 6 3 3 6 3 0 0 0 0 0 0 0 0 0 0
10 10 13 10 16 16 13 10 6 10 10 10 13 10 10 10 10 10 10 6 6 10 10 10 10 13 10 10 6 6 6 6 6 3 0 0 0 0 0 0 0 0 0
10 13 13 13 13 16 13 13 10 13 10 10 10 10 10 10 10 10 10 10 6 10 10 10 10 6 6 6 6 10 6 10 6 3 0 0 0 0 0 0 0 0 0
16 16 13 13 13 16 10 6 6 13 13 13 13 10 13 6 6 3 3 6 6 13 13 10 10 10 10 6 6 3 3 3 3 3 0 0 0 0 0 0 0 0 0
19 23 16 13 13 6 6 6 3 10 13 16 10 10 6 10 10 16 10 3 3 0 3 13 13 10 10 6 6 6 3 3 3 3 0 0 0 0 0 0 0 0 0
19 19 23 16 13 6 3 3 3 6 6 13 10 10 10 10 10 13 13 13 10 10 6 6 6 6 6 6 6 6 6 3 3 0 0 0 0 0 0 3 0 0 0
16 16 19 16 13 13 3 0 0 3 6 6 13 13 10 13 10 3 3 13 13 10 10 6 6 6 3 3 3 3 3 3 3 3 0 0 0 0 3 3 0 0 0
16 16 16 16 13 16 6 3 0 3 3 6 10 10 3 3 3 3 3 10 13 10 10 10 10 0 0 0 0 3 3 3 3 3 0 0 0 3 6 6 0 3 0

GEFSMA_con_cape1000_294.txt.gz
Probability
52 45 61 52 42 29 23 39 26 29 39 32 26 19 19 19 35 26 42 35 39 35 35 32 35 35 35 39 35 39 35 42 39 39 39 32 29 32 32 26 26 29 32
52 42 39 48 35 35 35 39 32 26 29 29 10 13 16 16 23 23 32 32 35 32 29 29 29 26 32 35 32 35 29 32 32 29 32 32 29 32 32 35 35 32 35
52 52 42 45 35 35 42 39 32 39 26 16 13 10 19 23 16 26 23 42 32 16 26 26 32 32 29 29 26 23 29 35 32 29 32 35 32 26 23 29 32 35 29
52 58 45 35 39 26 39 23 26 26 26 29 26 16 19 32 19 23 29 32 39 29 32 29 32 32 26 23 23 26 23 26 26 26 29 29 29 26 19 19 16 19 26
45 52 52 45 45 32 32 16 23 23 23 26 16 23 29 32 35 16 23 23 29 26 39 39 29 29 26 26 29 26 23 19 19 26 23 23 26 23 23 23 13 26 23
45 45 42 52 39 42 45 48 35 35 35 32 19 19 32 29 26 19 16 13 32 19 16 26 32 32 29 32 32 29 29 23 19 23 23 26 26 23 19 19 16 23 19
48 48 39 55 52 45 48 42 39 35 32 35 32 29 26 19 26 26 19 16 16 13 26 32 35 29 29 16 19 26 26 29 32 32 29 26 23 23 16 13 16 16 16
52 29 48 42 55 52 52 48 48 39 35 32 32 35 19 29 35 23 23 26 19 26 26 19 29 35 32 32 19 16 19 23 35 29 32 32 32 26 16 13 16 16 16
48 52 55 52 55 42 39 48 42 42 39 42 42 35 26 23 29 29 35 32 35 26 32 26 23 29 32 32 26 13 29 26 23 35 29 29 26 23 16 13 13 16 16
55 55 55 52 42 42 52 35 39 39 42 39 32 35 29 29 29 32 26 32 35 35 39 16 19 29 26 39 29 10 13 16 19 23 26 29 35 29 19 23 26 23 26
65 58 58 55 52 45 48 45 48 45 35 42 35 29 32 42 32 39 23 32 29 32 29 26 26 26 29 26 32 19 3 3 3 13 29 29 29 26 16 16 16 16 19
65 65 65 61 52 52 55 58 55 52 52 52 48 45 52 35 39 29 32 32 26 26 23 26 29 29 26 26 19 10 3 3 3 3 10 16 23 23 23 19 19 16 16
55 65 61 61 55 55 55 61 58 58 55 58 58 55 45 35 35 35 32 26 23 19 26 23 26 29 19 23 29 10 3 3 3 3 3 3 6 13 13 13 16 16 16
45 65 65 55 52 52 45 58 58 55 58 58 48 55 52 32 35 32 26 23 26 23 23 23 16 16 19 23 23 6 19 3 3 0 0 0 3 6 6 6 10 10 10
55 48 52 58 52 48 52 55 58 58 58 55 52 45 42 35 42 39 29 32 26 16 13 29 23 23 23 23 13 19 19 13 3 0 0 0 0 0 0 0 3 3 3
55 52 52 45 39 39 42 48 48 55 48 48 52 48 48 35 35 29 29 29 32 29 29 23 26 26 23 16 16 23 23 13 6 0 0 0 0 0 0 0 0 0 0
58 48 45 42 42 42 42 48 39 42 42 42 35 39 45 39 32 29 29 29 26 23 19 19 23 29 23 19 16 19 16 19 13 3 0 0 0 0 0 0 0 0 0
58 55 42 42 42 32 42 42 39 39 39 35 32 32 29 29 39 29 26 23 23 23 23 23 23 23 29 29 26 23 16 13 16 0 0 0 0 0 0 0 0 0 0
55 52 48 42 42 32 42 45 32 39 35 35 35 35 32 29 32 19 35 29 26 23 29 23 16 26 26 19 23 16 13 23 13 3 0 0 0 0 0 0 0 0 0
52 48 45 45 42 39 39 39 39 39 39 39 39 39 35 32 29 29 26 26 23 26 26 23 23 19 26 23 19 13 13 16 13 10 6 3 0 0 0 0 0 0 0
45 52 52 45 45 42 29 35 39 35 39 42 42 39 32 26 26 26 23 29 26 26 26 26 26 26 23 23 19 19 13 10 13 10 13 10 10 13 6 0 0 0 0
45 48 52 48 42 26 23 16 23 35 39 35 35 32 32 32 16 3 6 10 19 23 26 26 29 29 29 26 26 23 13 13 16 10 13 13 6 10 10 10 3 0 0
45 45 45 39 35 29 13 3 0 26 35 39 39 35 26 23 26 29 10 0 0 0 3 26 26 29 29 29 29 29 32 23 19 19 16 10 10 13 10 3 0 0 0
48 52 52 45 52 35 16 0 0 16 23 35 39 35 32 32 26 35 35 26 26 26 19 13 23 32 29 32 35 32 32 29 26 26 13 10 10 13 10 6 0 0 0
45 48 45 48 55 42 16 0 0 32 32 29 26 32 32 32 29 6 32 35 35 35 16 6 13 16 10 13 16 23 29 19 19 16 16 13 13 16 13 6 3 0 0
42 45 42 42 55 48 16 6 0 26 29 26 32 29 19 19 19 3 26 29 32 32 32 19 16 10 13 13 3 19 29 29 16 13 16 13 13 19 13 10 6 6 3

GEFSMA_con_cape1000_300.txt.gz
Probability
77 71 71 77 61 61 48 65 52 48 39 35 29 32 29 29 35 16 23 39 48 42 39 42 42 39 42 32 42 35 35 35 42 42 39 39 35 26 26 19 19 26 26
74 74 68 71 65 65 61 55 48 52 42 39 39 39 39 32 32 32 23 26 45 45 42 42 39 45 45 39 39 32 35 39 35 35 32 35 39 35 35 32 26 29 26
68 65 74 61 61 58 58 61 55 48 45 35 45 45 39 35 35 32 32 32 26 32 35 29 39 39 42 39 32 32 39 39 35 35 35 29 32 35 35 35 29 26 26
65 74 68 68 65 58 61 58 55 48 45 42 45 39 35 39 35 35 35 39 26 19 26 29 35 26 32 26 26 26 32 32 32 29 29 32 26 29 29 29 29 23 26
61 68 61 68 55 65 68 35 48 55 48 42 39 32 32 35 39 29 32 32 32 32 23 29 42 32 32 26 26 26 29 32 32 26 26 29 26 29 29 29 26 23 26
65 58 74 55 58 65 61 58 52 52 45 45 19 23 29 32 42 32 29 26 26 26 19 19 26 19 35 35 35 29 29 29 29 29 32 29 29 29 32 35 19 16 16
61 65 61 61 58 55 55 52 42 48 42 45 35 23 26 29 35 45 35 26 19 19 26 26 23 19 13 29 29 26 26 32 32 29 29 29 29 26 26 26 19 13 13
61 42 61 61 55 58 55 52 48 52 42 42 39 32 32 35 42 26 45 35 23 26 26 19 26 32 26 13 13 29 29 29 35 29 26 26 26 23 26 26 19 16 13
65 58 55 58 58 58 61 55 55 48 48 42 45 32 35 39 35 45 39 42 35 32 32 32 29 32 32 26 13 16 29 32 32 32 32 29 23 23 23 23 23 13 10
65 58 61 52 61 61 58 52 61 61 55 55 48 48 39 39 39 35 39 39 39 35 29 19 23 29 32 32 26 13 23 23 39 35 32 35 32 29 23 16 13 13 10
68 61 61 61 58 58 61 58 45 52 55 58 55 55 52 45 42 42 35 39 39 35 39 29 29 29 32 32 29 6 13 10 19 29 32 32 29 29 19 19 16 13 16
68 65 65 65 65 65 65 58 58 58 61 58 58 58 48 42 35 29 35 32 29 35 29 35 29 26 23 26 23 13 6 3 3 6 13 16 23 23 26 26 23 16 13
68 65 61 65 61 61 55 61 65 52 52 48 52 61 52 45 42 32 39 39 26 32 32 32 29 19 19 23 26 13 6 6 3 3 3 10 16 16 16 19 23 19 13
61 68 65 58 61 55 58 61 58 58 52 55 52 58 58 52 45 39 35 39 39 32 29 23 23 23 23 26 19 10 10 6 3 3 3 3 6 6 6 10 13 13 13
65 61 61 55 55 55 52 61 58 55 58 58 55 58 52 48 39 39 39 32 32 26 29 26 23 23 26 19 10 13 13 6 3 3 0 0 0 0 3 3 6 6 6
68 61 58 55 52 52 55 61 58 58 55 58 65 55 55 55 52 35 32 29 35 39 29 32 26 23 23 10 6 13 10 6 3 3 0 0 0 0 0 0 0 0 0
65 58 52 48 48 45 48 58 55 52 48 52 48 45 42 55 52 35 45 39 35 35 23 29 23 26 26 29 10 16 10 6 6 3 0 0 0 0 0 0 0 0 0
61 61 55 58 52 52 58 61 52 45 42 48 52 48 45 39 45 52 42 39 29 39 29 26 26 29 26 29 23 23 10 10 10 3 3 0 0 0 0 0 0 0 0
61 65 61 58 52 55 61 61 55 45 48 42 48 52 52 48 45 42 42 35 29 16 29 26 29 32 23 23 29 26 19 16 10 6 3 0 0 0 0 0 0 0 0
71 71 65 58 52 58 61 65 55 42 45 48 48 48 45 45 48 42 35 39 32 29 29 29 19 19 23 29 32 32 26 26 19 6 6 3 0 0 0 0 0 0 0
68 71 65 58 58 58 45 58 48 39 48 48 45 39 39 35 35 29 19 35 32 29 26 26 19 19 19 23 32 29 26 23 23 19 16 10 3 0 0 0 0 0 0
68 71 58 55 55 32 23 16 26 42 45 48 45 45 32 32 19 13 13 10 13 29 26 26 26 23 19 23 23 23 19 23 16 23 16 16 10 10 6 6 0 0 0
61 58 55 55 52 39 13 6 10 35 39 45 42 42 35 26 26 32 23 6 6 3 3 23 23 23 26 19 26 26 19 16 19 23 23 19 13 10 10 13 3 0 0
58 55 55 48 52 32 6 3 3 19 48 42 45 42 42 32 26 29 26 26 32 26 10 3 19 26 23 26 26 26 26 26 26 23 19 19 13 13 13 10 3 0 0
58 55 55 48 45 35 6 0 0 23 48 42 35 35 32 32 16 16 23 29 32 29 16 3 6 13 16 10 10 16 19 13 16 16 19 23 16 13 13 10 3 0 0
58 55 52 55 48 39 10 0 0 16 35 35 42 32 16 16 13 10 19 32 32 26 23 19 0 0 0 6 0 13 13 13 13 16 16 19 19 19 13 13 3 0 0